Track STARLINK-1648 now! 10-day predictions STARLINK-1648 is classified as:
1 46533U 20070B 21021.58335648 .00023589 00000-0 16327-2 0 9996 2 46533 53.0018 305.3196 0002280 73.3619 286.9599 15.05580342 1763